,

(GMT )
Bow Valley

Weather History for CWXA - November, 2012

Change the Weather History Date:

Saturday, November 17, 2012

  Actual Average Record
Temperature  
Mean Temperature 38 °F -  
Max Temperature 48 °F - - ()
Min Temperature 29 °F - - ()
Degree Days  
Heating Degree Days 26    
Moisture  
Dew Point 23 °F    
Average Humidity 52    
Maximum Humidity 65    
Minimum Humidity 33    
Precipitation  
Precipitation 0.00 in - - ()
Sea Level Pressure  
Sea Level Pressure 29.68 in    
Wind  
Wind Speed 8 mph ()    
Max Wind Speed 14 mph    
Max Gust Speed 24 mph    
T = Trace of Precipitation, MM = Missing Value Source: Averaged Metar Reports

Daily Weather History Graph

Daily Weather History Graph

Search for Another Location

Airport or City:

Trip Planner

Search our weather history database for the weather conditions in past years. The results will help you decide how hot, cold, wet, or windy it might be!

Date:

Astronomy

Nov. 17, 2012 Rise Set
Actual Time 8:01 AM MST 4:49 PM MST
Civil Twilight 7:24 AM MST 5:25 PM MST
Nautical Twilight 6:43 AM MST 6:06 PM MST
Astronomical Twilight 6:04 AM MST 6:45 PM MST
Moon 11:48 AM MST (11/17) 9:06 PM MST (11/17)
Length of Visible Light 10h 01m
Length of Day
8h 47m
Waxing Crescent, 21% of the Moon is Illuminated
Nov 17
Waxing Crescent
Nov 20
First Quarter
Nov 28
Full
Dec 6
Last Quarter
Dec 13
New

Hourly Weather History & Observations

Time (MST) Temp. Windchill Dew Point Humidity Pressure Visibility Wind Dir Wind Speed Gust Speed Precip Events Conditions
12:00 AM 30.7 °F 20.4 °F 17.2 °F 57% 29.85 in - WSW 13.8 mph 24.2 mph N/A   Unknown
1:00 AM 31.3 °F 21.6 °F 17.1 °F 56% 29.85 in - West 12.7 mph 19.6 mph N/A   Unknown
2:00 AM 29.1 °F 20.6 °F 17.1 °F 61% 29.83 in - WSW 9.2 mph 17.3 mph N/A   Unknown
3:00 AM 30.0 °F 20.5 °F 18.0 °F 61% 29.83 in - West 11.5 mph 18.4 mph N/A   Unknown
4:00 AM 31.3 °F 22.7 °F 18.9 °F 60% 29.82 in - WSW 10.4 mph - N/A   Unknown
5:00 AM 29 °F - 19 °F 54% 29.84 in - WSW 9.2 mph - -  
5:00 AM 29.5 °F 21.1 °F 18.9 °F 65% 29.84 in - WSW 9.2 mph 19.6 mph N/A   Unknown
6:00 AM 31.8 °F 23.3 °F 20.1 °F 62% 29.83 in - WSW 10.4 mph - N/A   Unknown
7:00 AM 32.9 °F 25.3 °F 21.0 °F 62% 29.81 in - WSW 9.2 mph 17.3 mph N/A   Unknown
8:00 AM 35.4 °F 26.8 °F 22.5 °F 59% 29.79 in - West 12.7 mph 20.7 mph N/A   Unknown
9:00 AM 38.5 °F 36.1 °F 22.6 °F 53% 29.78 in - WSW 3.5 mph - N/A   Unknown
10:00 AM 42.4 °F 36.1 °F 23.2 °F 47% 29.76 in - WSW 11.5 mph 20.7 mph N/A   Unknown
11:00 AM 42 °F - 23 °F 33% 29.75 in - WSW 9.2 mph - -  
11:00 AM 42.4 °F 37.0 °F 22.8 °F 46% 29.75 in - WSW 9.2 mph 18.4 mph N/A   Unknown
12:00 PM 46.0 °F 40.6 °F 22.1 °F 39% 29.70 in - WSW 11.5 mph 19.6 mph N/A   Unknown
1:00 PM 47.3 °F - 21.0 °F 35% 29.66 in - WSW 8.1 mph 18.4 mph N/A   Unknown
2:00 PM 48.6 °F - 23.9 °F 38% 29.64 in - West 13.8 mph 21.9 mph N/A   Unknown
3:00 PM 46.2 °F 43.3 °F 25.0 °F 43% 29.62 in - West 5.8 mph - N/A   Unknown
4:00 PM 45.9 °F 43.6 °F 26.1 °F 46% 29.60 in - SW 4.6 mph - N/A   Unknown
5:00 PM 45 °F - 27 °F 36% 29.57 in - SSW 4.6 mph - -  
5:00 PM 44.6 °F 42.2 °F 26.8 °F 50% 29.57 in - SSW 4.6 mph - N/A   Unknown
6:00 PM 43.0 °F 41.3 °F 27.5 °F 54% 29.55 in - SW 3.5 mph - N/A   Unknown
7:00 PM 43.3 °F - 28.6 °F 56% 29.51 in - South 2.3 mph - N/A   Unknown
8:00 PM 45.5 °F 42.5 °F 28.2 °F 51% 29.48 in - WSW 5.8 mph - N/A   Unknown
9:00 PM 42.6 °F 39.9 °F 27.9 °F 56% 29.44 in - West 4.6 mph - N/A   Unknown
10:00 PM 44.8 °F 41.0 °F 28.8 °F 53% 29.43 in - WSW 6.9 mph - N/A   Unknown
11:00 PM 41 °F - 29 °F 50% 29.41 in - SSE 4.6 mph - -  
11:00 PM 41.4 °F 38.4 °F 28.8 °F 61% 29.41 in - SSE 4.6 mph - N/A   Unknown